Regional Weather Roundup
Issued by NWS Upton, NY

Current Version | Previous Version | Graphics & Text | Print | Product List | Glossary Off
Versions: 1 2 3 4 5 6 7 8 9 10 11 12 13 14 15 16 17 18 19 20 21 22 23 24 25 26 27 28 29 30 31 32 33 34 35 36 37 38 39 40 41 42 43 44 45 46 47 48 49 50
000 ASUS41 KOKX 180305 RWROKX REGIONAL WEATHER ROUNDUP NATIONAL WEATHER SERVICE NEW YORK NY 1000 PM EST WED DEC 17 2014 NOTE: "FAIR" INDICATES FEW OR NO CLOUDS BELOW 12,000 FEET WITH NO SIGNIFICANT WEATHER AND/OR OBSTRUCTIONS TO VISIBILITY. NYZ071-072-176-178-NJZ106-104-180400- NEW YORK CITY METRO AREA CITY SKY/WX TMP DP RH WIND PRES REMARKS CENTRAL PARK CLOUDY 44 28 53 W10 29.91F LAGUARDIA APRT MOCLDY 44 30 57 W16G23 29.89S KENNEDY INTL MOCLDY 45 28 51 W20G29 29.90S NEWARK/LIBERTY MOCLDY 43 28 55 W15G22 29.91S BRNX BOT. GARD N/A 43 32 65 W8 29.90S TETERBORO CLOUDY 43 29 57 W8 29.89S $$ NYZ177-179-078>081-180400- LONG ISLAND NEW YORK CITY SKY/WX TMP DP RH WIND PRES REMARKS FARMINGDALE MOCLDY 44 34 67 NW9 29.87F ISLIP PTCLDY 42 32 67 NW10 29.85S SHIRLEY CLEAR 43 32 65 W12 29.86S WESTHAMPTON CLEAR 40 30 67 W8 29.86S WCI 34 MONTAUK POINT N/A 45 37 73 W14G23 29.82S $$ NYZ052-065-067-180400- HUDSON VALLEY CITY SKY/WX TMP DP RH WIND PRES REMARKS WHITE PLAINS PTCLDY 41 31 67 W13G18 29.85F NEWBURGH NOT AVBL MONTGOMERY CLOUDY 39 31 72 W9 29.87S WCI 33 POUGHKEEPSIE CLOUDY 42 30 62 W8 29.86S ALBANY LGT RAIN 37 29 72 W9 29.86S WCI 30 $$ NJZ001-105-106-008-010-013-015-019>022-104-180400- NEW JERSEY CITY SKY/WX TMP DP RH WIND PRES REMARKS NEWARK/LIBERTY MOCLDY 43 28 55 W15G22 29.91S TETERBORO CLOUDY 43 29 57 W8 29.89S CALDWELL CLOUDY 42 26 53 W7 29.90F MORRISTOWN N/A 43 28 56 W9 29.91S SOMERVILLE PTCLDY 41 25 53 W8G20 29.91R SUSSEX CLOUDY 40 29 64 VRB6 29.89F ANDOVER N/A 39 26 59 CALM 29.90S TRENTON CLEAR 39 25 57 W12G22 29.95R WCI 32 MILLVILLE CLEAR 39 25 57 W14 29.99R WCI 31 ATLANTIC CITY CLEAR 40 25 55 W12 29.98R WCI 33 WRIGHTSTOWN PTCLDY 40 25 56 W14G21 29.94R WCI 32 TOMS RIVER CLEAR 39 27 60 W12G20 29.95S WCI 32 BELMAR CLEAR 39 25 56 W10 29.92S WCI 32 $$ PAZ047>061-062-071-180400- EASTERN PENNSYLVANIA CITY SKY/WX TMP DP RH WIND PRES REMARKS PHILADELPHIA PTCLDY 41 23 48 W14 30.00R ALLENTOWN PTCLDY 37 23 56 W12 29.96R WCI 29 SCRANTON CLOUDY 37 24 59 SW7G18 29.92R WCI 32 $$ CTZ002-004>006-009-010-012-RIZ004-006-007-MAZ004-011-015-180400- SOUTHERN NEW ENGLAND IN CT CITY SKY/WX TMP DP RH WIND PRES REMARKS BRADLEY INTL LGT RAIN 40 30 67 NW8 29.82R WCI 34 HARTFORD CLOUDY 41 32 70 NW8 29.84R DANBURY CLOUDY 41 28 60 MISG 29.85F WTRBRY/OXFORD CLOUDY 39 28 65 W3 29.84F BRIDGEPORT CLOUDY 43 32 65 W6 29.85S MERIDEN PTCLDY 40 34 79 NW3 29.84S NEW HAVEN MOCLDY 45 34 65 VRB3 29.84F CHESTER FAIR 39 36 87 NW10 29.82S WCI 32 GROTON MOCLDY 42 34 73 NW13 29.81R WILLIMANTIC CLOUDY 41 30 65 NW10G22 29.81R IN RI CITY SKY/WX TMP DP RH WIND PRES REMARKS PROVIDENCE CLOUDY 43 32 65 W13G20 29.77S BLOCK ISLAND CLOUDY 45 36 70 W15G22 29.79R WESTERLY CLOUDY 44 35 70 NW7 29.81R IN MA CITY SKY/WX TMP DP RH WIND PRES REMARKS BOSTON CLOUDY 43 36 76 W20G26 29.73R WORCESTER CLOUDY 36 33 89 W15 29.74R WCI 27 WESTFIELD CLOUDY 40 28 62 NW7G21 29.81R PROVINCETOWN CLOUDY 45 37 76 W16G24 29.71S NANTUCKET CLOUDY 47 40 76 W15 29.74S $$ ANZ330-335-338-340-345-350-353-355-180400- COASTAL MARINE OBSERVATIONS STATION/POSITION TIME SKY/WX TEMP WIND PRES VSBY WAVE AIR SEA DIR/SP/G HT/PER (UTC) (F) (DEG/KT/KT) (MB) (MI) (FT/S) NY HARB ENTRANCE 0300 44 46 270/ 21/ 25 1012.5 3/ 4 4S FIRE IS 0300 46 N/A 3/ 4 20S FIRE ISLAND 0200 46 50 1011.6 6/ 5 23SW MTP 0300 N/A 5/ 6 HUDSON CANYON 0300 48 55 290/ 23/ 27 1011.5 9/ 6 EXECUTION ROCKS 0300 44 42 280/ 12/ 17 N/A WESTERN LI SOUND 0300 44 280/ 10/ 12 N/A 1 CENTRAL LI SOUND 0200 44 45 290/ 17/ 23 N/A 2/ 4 EASTERN LI SOUND NOT AVBL ROBBINS REEF 0300 43 280/ 12/ 15 1011.5 $$ >>>>>>>>>>>>>>>>>>>>>>>>>>>> KEY <<<<<<<<<<<<<<<<<<<<<<<<<<< > < > SKY/WX - SKY CONDITION/PRESENT WEATHER < > TMP - TEMPERATURE IN FAHRENHEIT < > DP - DEWPOINT IN FAHRENHEIT < > RH - RELATIVE HUMIDITY IN PERCENT < > WIND - DIRECTION AND SPEED IN MPH < > PRES - MEAN SEA LEVEL PRESSURE IN INCHES OF HG < > WCI - WIND CHILL INDEX < > VSB - VISIBILITY IN MILES < > HX - HEAT INDEX < > TC - TEMPERATURE IN CELSIUS < > VRB - VARIABLE WIND DIRECTION < > < >>>>>>>>>>>>>>>>>>>>>>>>>>>> KEY <<<<<<<<<<<<<<<<<<<<<<<<<<<

USA.gov is the U.S. government's official web portal to all federal, state and local government web resources and services.